Wind_Speed
17 9 2 17 22 19 29 27 22 18 12 16 20 21 20 24 23 21 16 17 19 19 15 11 10 13 19 25 31 31 28 26 25 25 26 27 28 30 31 32 32 31 34 24
30 14 7 9 22 21 26 22 20 19 13 18 21 23 26 22 22 18 15 19 17 17 16 14 13 13 14 14 19 24 25 25 26 28 29 30 31 34 35 35 36 32 41 31
28 22 10 8 16 28 26 22 21 21 17 14 22 24 20 19 19 18 20 18 16 15 14 12 13 11 10 9 10 12 16 19 21 23 27 29 31 34 35 37 39 41 40 41
23 27 18 12 13 23 31 25 21 22 21 16 22 24 19 18 16 13 13 11 10 8 9 10 11 12 13 15 16 18 20 21 24 26 30 34 36 37 34 39 37 46 41 46
16 20 24 12 11 20 31 31 27 23 23 28 28 24 18 17 12 11 9 8 8 10 12 13 13 14 15 14 15 16 19 22 25 23 29 35 37 33 36 39 41 46 47 49
11 13 16 21 6 12 26 33 33 31 30 30 24 24 18 12 6 4 5 7 8 10 12 13 15 17 18 18 20 25 26 28 33 33 33 37 42 35 37 40 43 43 44 46
5 8 10 13 17 8 17 27 30 33 31 28 31 27 25 21 17 18 19 19 20 21 21 22 23 25 23 23 25 26 26 28 30 31 29 28 32 34 37 39 40 44 48 49
0 2 5 6 9 11 9 18 25 26 29 28 27 25 24 24 26 24 25 25 25 23 22 21 19 19 17 20 22 24 26 29 33 35 36 35 37 44 45 45 44 48 50 55
5 5 5 5 4 4 6 10 23 17 19 25 26 26 27 27 28 26 27 22 17 14 15 15 13 16 17 20 22 25 28 31 36 39 42 43 43 44 49 54 53 56 56 58
11 10 10 10 9 7 4 4 5 13 23 25 28 32 29 28 25 19 17 16 15 15 16 17 19 19 22 24 25 28 33 39 42 45 49 50 48 52 57 59 60 63 65 65
16 15 15 14 14 12 11 9 9 11 11 13 16 18 19 19 19 17 16 18 18 18 19 20 23 26 26 28 31 36 42 48 50 52 54 58 58 61 65 68 71 73 74 73
22 19 19 19 18 17 16 16 15 14 14 13 16 15 17 17 16 18 20 18 20 22 26 28 30 33 35 36 40 43 47 49 55 57 59 60 62 67 69 71 73 72 73 73
26 23 23 23 22 20 21 20 19 19 18 19 20 20 20 20 19 21 20 25 28 29 32 36 38 40 40 42 45 50 52 54 58 60 59 61 70 73 77 78 76 75 75 75
29 26 26 25 24 24 24 24 24 23 23 21 22 23 22 22 19 22 24 28 32 36 40 42 43 44 48 49 50 54 56 62 60 63 65 69 71 72 73 76 78 78 76 73
31 30 29 28 27 26 27 27 28 27 26 23 20 21 22 23 24 27 32 35 37 40 44 47 51 53 55 58 60 61 64 63 69 70 73 78 78 79 76 73 73 74 73 73
34 34 32 31 30 30 29 29 31 30 29 27 27 25 24 26 30 34 38 41 44 48 52 54 54 55 59 63 63 63 65 67 71 74 77 80 82 82 80 75 73 71 70 69
37 38 37 36 34 33 33 33 33 33 35 36 35 29 24 26 30 35 38 42 47 51 53 54 56 59 64 65 65 66 71 74 76 78 82 85 84 82 77 69 65 65 64 64
42 42 40 40 39 38 38 38 36 37 38 41 44 40 37 38 38 40 44 46 47 47 49 51 54 58 62 63 63 69 71 74 77 81 83 82 75 67 62 60 59 58 57 58
45 46 47 46 44 45 47 45 43 42 45 45 42 37 42 46 48 51 51 52 53 55 54 53 58 59 63 67 70 73 75 76 79 82 81 72 62 56 55 53 50 49 50 51
49 50 51 51 53 54 50 45 47 49 49 46 44 47 49 52 53 54 56 59 59 61 62 64 65 65 68 72 74 74 77 76 73 68 63 57 55 50 45 42 42 43 45 49
51 52 52 51 50 49 50 52 53 52 51 51 52 52 53 54 56 58 59 60 63 65 64 65 64 64 68 73 73 72 69 63 59 57 55 53 50 47 44 42 43 46 50 52
54 52 52 51 53 54 55 55 54 52 53 53 51 53 55 56 56 58 61 64 65 66 65 66 64 65 70 72 67 59 53 53 53 52 50 48 44 42 42 45 48 50 52 56
57 56 54 53 53 55 55 53 53 54 54 53 52 52 53 55 59 62 64 66 68 68 68 69 67 68 67 60 55 51 50 47 44 42 41 40 41 44 47 49 50 53 57 60
61 59 57 56 57 56 53 50 49 50 52 53 53 53 54 57 60 63 66 70 69 69 72 66 59 57 53 51 48 47 48 45 41 40 41 43 46 48 51 52 55 58 61 65
58 57 55 55 52 49 48 48 50 51 51 52 53 56 58 60 64 65 67 67 69 70 62 58 56 53 50 47 45 46 45 43 42 43 43 46 49 52 53 56 59 62 65 68
55 51 50 48 45 45 49 50 51 53 55 56 58 60 62 64 67 69 70 67 64 54 57 57 54 53 50 49 46 44 44 43 42 45 47 50 52 54 55 59 64 67 70 73
52 51 49 48 48 49 51 53 53 56 58 59 61 63 64 67 70 71 69 64 57 56 53 52 52 51 48 45 44 42 43 45 47 48 50 52 53 56 61 64 68 71 74 75
Wind_Direction
30 19 166 155 151 161 169 154 144 124 116 91 132 143 148 150 149 161 159 168 170 175 174 173 179 178 190 201 209 216 222 229 240 245 249 253 256 261 262 267 271 276 278 284
23 21 63 158 160 163 180 177 153 128 122 109 123 139 136 140 153 164 175 184 189 179 183 182 182 186 185 196 211 222 228 237 247 255 260 262 265 266 269 277 282 293 283 301
18 23 29 105 158 167 176 185 175 141 147 132 129 129 142 148 160 154 166 175 168 174 182 181 183 184 187 197 220 236 237 247 255 267 269 268 275 276 282 288 293 292 294 295
19 26 22 55 128 161 167 184 174 166 151 151 141 147 136 146 146 143 141 145 149 168 189 197 206 216 230 239 239 242 248 259 264 271 275 275 276 281 293 294 296 293 295 290
27 23 34 43 99 152 168 167 185 179 165 143 156 146 131 142 146 157 173 184 198 216 225 233 239 242 250 261 269 276 271 261 267 274 280 285 286 291 291 289 290 292 292 296
38 34 34 45 87 139 172 169 174 185 191 185 179 167 166 175 177 190 229 236 257 270 262 258 261 263 268 272 275 276 281 286 285 282 288 287 285 287 283 284 286 289 288 289
25 56 49 51 51 112 168 185 182 185 192 196 200 211 220 221 236 239 242 246 248 251 261 262 257 252 250 258 261 265 268 269 271 275 272 273 281 285 287 289 288 287 287 287
297 82 93 77 63 65 165 180 193 199 205 211 216 218 226 236 247 256 260 267 266 265 263 257 252 250 248 252 256 265 273 277 278 277 279 277 281 287 292 288 287 286 286 287
237 209 180 158 142 93 85 167 201 212 228 222 225 234 246 248 255 257 253 251 260 265 269 269 260 258 262 268 271 279 283 285 285 286 285 285 286 292 291 293 293 291 291 289
261 224 205 199 194 195 192 183 199 196 207 218 233 243 252 250 248 249 252 260 267 270 275 278 276 275 280 283 290 294 297 299 299 297 295 295 302 297 296 293 295 295 294 294
261 243 221 205 204 206 209 215 209 204 212 222 224 229 237 243 246 249 254 261 275 280 281 288 293 296 296 298 298 301 300 301 300 297 296 299 299 298 299 300 300 299 298 298
261 243 231 219 210 208 213 214 215 216 214 220 225 229 233 239 253 266 272 267 284 284 287 290 292 292 288 289 288 295 294 294 295 294 296 298 300 298 297 298 296 297 297 297
251 247 235 227 219 217 220 220 218 216 217 220 228 239 247 252 264 273 264 280 289 290 290 291 290 289 286 288 290 289 291 293 294 296 299 302 298 297 298 299 298 297 298 297
242 239 237 233 228 226 225 227 228 227 224 225 240 245 253 257 260 271 276 279 280 282 284 285 287 291 291 291 290 292 296 294 301 295 298 294 294 296 297 297 298 299 298 297
238 230 233 236 232 233 231 233 236 234 232 226 236 251 253 265 273 277 281 283 283 282 286 290 295 298 296 296 296 298 295 303 298 295 294 295 297 297 297 296 296 295 295 294
234 231 232 237 236 236 238 240 245 247 245 241 239 239 257 273 282 284 284 285 287 288 290 292 292 291 293 291 294 296 297 292 291 292 293 293 293 294 295 294 294 294 295 295
232 232 235 237 239 239 241 242 246 255 260 261 256 252 257 269 268 266 269 271 273 277 280 282 285 288 287 289 294 295 292 291 291 291 290 290 292 293 294 293 293 292 293 292
236 235 238 240 241 243 244 245 251 254 258 264 270 277 280 276 273 273 275 276 275 276 278 283 285 285 288 292 293 291 292 291 290 293 296 299 299 297 295 293 290 291 291 290
236 237 238 240 244 244 244 246 249 256 260 264 270 284 286 286 289 286 284 282 283 283 289 293 292 294 297 303 300 301 300 298 298 300 301 301 298 296 293 293 292 290 288 290
239 239 241 243 243 249 248 252 255 258 264 267 276 284 285 285 286 288 289 290 290 291 295 297 299 302 305 304 301 300 301 303 303 301 300 299 298 298 296 294 292 290 292 295
243 244 243 247 249 251 253 253 256 261 268 273 278 280 283 285 287 287 287 288 290 291 294 297 298 303 303 298 299 299 299 299 298 296 294 294 295 295 294 294 294 296 296 296
245 242 245 252 254 256 258 261 263 266 269 273 276 280 283 284 284 285 286 288 288 293 293 297 303 302 297 296 297 297 298 295 292 290 290 291 291 293 295 296 296 296 296 296
249 250 251 250 252 257 260 265 270 270 271 274 276 278 280 282 284 285 287 290 293 294 297 302 306 300 299 297 296 295 294 290 289 290 290 290 292 294 294 294 294 296 297 298
253 252 252 254 258 262 265 268 270 271 272 273 275 277 279 281 284 287 290 292 293 297 301 304 298 296 295 295 295 292 288 289 288 285 288 293 295 295 294 294 296 299 300 301
255 254 254 256 259 262 267 270 270 270 272 274 276 278 280 282 284 287 289 292 295 299 301 295 294 294 296 299 297 294 294 288 287 290 294 295 294 293 295 298 300 301 301 302
253 256 261 262 264 268 269 270 271 272 273 276 279 280 282 282 284 287 289 290 293 292 289 292 291 293 299 299 295 294 290 289 292 294 294 295 297 299 300 301 301 303 304 304
252 254 258 260 263 267 270 272 273 275 276 277 278 279 281 282 284 286 289 290 286 283 288 289 290 294 298 297 296 293 290 292 295 298 300 300 299 301 302 303 305 305 305 305
Height
5695 5692 5693 5695 5697 5700 5703 5706 5711 5713 5714 5718 5716 5718 5721 5725 5729 5734 5738 5741 5743 5746 5750 5753 5755 5758 5762 5766 5769 5772 5776 5778 5780 5781 5781 5782 5782 5782 5782 5781 5782 5783 5782 5788
5699 5693 5691 5694 5697 5700 5703 5708 5711 5715 5717 5720 5722 5723 5725 5730 5734 5737 5739 5742 5744 5748 5750 5754 5755 5758 5761 5764 5767 5770 5773 5775 5776 5777 5779 5778 5778 5777 5775 5776 5776 5780 5771 5782
5704 5697 5692 5691 5695 5699 5703 5710 5714 5718 5720 5724 5726 5729 5731 5734 5737 5739 5742 5744 5746 5749 5752 5754 5757 5759 5762 5765 5768 5770 5772 5774 5775 5776 5774 5774 5774 5772 5771 5770 5770 5767 5768 5768
5709 5704 5697 5695 5694 5698 5704 5710 5715 5721 5723 5725 5729 5732 5734 5737 5740 5742 5745 5748 5749 5750 5752 5754 5756 5759 5761 5763 5765 5767 5769 5770 5770 5770 5769 5767 5767 5767 5768 5762 5761 5755 5759 5756
5713 5709 5705 5699 5699 5700 5705 5709 5715 5719 5724 5727 5729 5731 5735 5738 5740 5742 5744 5746 5748 5750 5752 5753 5754 5756 5757 5759 5761 5761 5762 5763 5763 5765 5763 5760 5758 5761 5759 5755 5751 5748 5743 5742
5714 5712 5710 5707 5703 5705 5707 5708 5712 5717 5721 5726 5729 5732 5734 5737 5740 5743 5745 5746 5747 5749 5751 5751 5752 5752 5753 5754 5755 5753 5753 5753 5752 5753 5752 5749 5747 5750 5747 5745 5742 5739 5734 5731
5715 5713 5713 5712 5710 5708 5710 5712 5714 5717 5720 5723 5728 5730 5732 5734 5737 5739 5741 5742 5743 5745 5744 5745 5746 5746 5747 5747 5747 5746 5746 5746 5745 5744 5744 5743 5740 5738 5737 5735 5734 5728 5724 5719
5714 5714 5713 5714 5714 5713 5712 5714 5717 5718 5720 5722 5725 5728 5730 5732 5733 5735 5735 5736 5738 5738 5739 5740 5740 5740 5740 5740 5740 5740 5740 5739 5737 5734 5733 5734 5732 5727 5724 5722 5723 5716 5711 5707
5711 5712 5713 5713 5713 5715 5716 5717 5717 5718 5721 5723 5723 5726 5727 5730 5731 5731 5730 5732 5731 5732 5732 5733 5735 5735 5735 5736 5735 5735 5733 5730 5728 5725 5721 5719 5718 5715 5710 5703 5703 5697 5695 5690
5706 5707 5709 5711 5711 5712 5714 5716 5717 5718 5719 5720 5721 5723 5723 5724 5725 5726 5727 5726 5727 5727 5728 5729 5728 5727 5727 5725 5724 5724 5720 5716 5714 5710 5702 5702 5702 5695 5691 5688 5688 5679 5672 5667
5699 5701 5703 5705 5708 5709 5710 5712 5714 5717 5718 5719 5720 5721 5721 5721 5722 5723 5723 5724 5723 5724 5723 5723 5721 5719 5719 5718 5716 5713 5710 5704 5700 5696 5692 5691 5688 5681 5677 5670 5662 5656 5650 5644
5691 5693 5696 5698 5700 5703 5705 5706 5708 5710 5712 5714 5714 5715 5715 5716 5717 5717 5718 5717 5716 5715 5713 5712 5710 5709 5708 5708 5705 5703 5698 5696 5688 5685 5681 5677 5669 5665 5660 5654 5646 5639 5633 5629
5682 5684 5687 5690 5692 5694 5697 5699 5701 5703 5705 5707 5707 5708 5709 5709 5710 5710 5710 5709 5706 5704 5702 5699 5698 5697 5697 5695 5694 5689 5685 5681 5675 5669 5671 5665 5655 5646 5636 5629 5626 5621 5615 5608
5672 5674 5677 5681 5684 5686 5687 5688 5691 5693 5696 5698 5698 5698 5700 5701 5702 5702 5702 5701 5698 5695 5691 5688 5687 5686 5682 5681 5679 5673 5671 5660 5658 5659 5650 5642 5635 5626 5620 5612 5604 5598 5593 5587
5661 5664 5667 5671 5675 5677 5679 5679 5680 5682 5687 5691 5691 5689 5692 5691 5691 5691 5688 5685 5682 5680 5677 5674 5671 5670 5664 5661 5659 5658 5655 5647 5637 5638 5625 5615 5617 5605 5600 5593 5587 5580 5575 5570
5649 5653 5657 5661 5665 5667 5669 5670 5670 5671 5674 5678 5681 5684 5683 5681 5678 5676 5672 5669 5667 5664 5662 5661 5658 5656 5651 5644 5643 5644 5636 5630 5620 5616 5610 5602 5595 5587 5580 5574 5567 5561 5555 5549
5637 5642 5646 5650 5653 5656 5658 5660 5659 5659 5660 5662 5666 5671 5674 5673 5671 5668 5666 5662 5659 5656 5654 5651 5648 5642 5634 5632 5632 5626 5617 5608 5604 5597 5589 5584 5575 5566 5558 5553 5546 5541 5536 5531
5625 5630 5635 5638 5641 5644 5646 5646 5648 5648 5647 5646 5645 5650 5657 5657 5655 5653 5649 5647 5646 5646 5643 5643 5638 5631 5623 5620 5617 5604 5597 5591 5584 5574 5565 5557 5551 5545 5540 5533 5528 5523 5519 5513
5613 5617 5620 5625 5628 5630 5631 5633 5635 5635 5637 5635 5639 5640 5635 5633 5631 5629 5629 5628 5625 5622 5624 5623 5616 5613 5604 5594 5586 5578 5571 5564 5558 5551 5543 5536 5531 5526 5520 5515 5510 5506 5502 5498
5599 5603 5607 5610 5613 5615 5619 5619 5619 5619 5620 5623 5626 5624 5622 5620 5616 5613 5610 5605 5604 5600 5602 5596 5594 5590 5580 5569 5562 5559 5550 5542 5536 5529 5524 5519 5513 5508 5505 5501 5498 5494 5490 5485
5584 5587 5592 5597 5600 5602 5603 5603 5604 5606 5609 5610 5609 5605 5604 5603 5600 5596 5594 5590 5587 5584 5586 5580 5579 5577 5565 5551 5550 5544 5538 5531 5523 5517 5512 5507 5502 5497 5493 5490 5486 5482 5477 5472
5570 5574 5578 5582 5585 5588 5591 5590 5592 5595 5594 5593 5591 5589 5587 5586 5583 5580 5578 5574 5571 5569 5568 5564 5564 5556 5543 5537 5531 5525 5521 5516 5511 5505 5499 5494 5490 5486 5481 5477 5473 5468 5462 5456
5555 5559 5564 5568 5571 5573 5575 5578 5580 5577 5575 5575 5574 5573 5572 5570 5567 5563 5559 5556 5554 5550 5547 5542 5543 5531 5528 5522 5516 5511 5507 5502 5496 5491 5487 5482 5479 5474 5469 5464 5459 5453 5447 5440
5540 5545 5551 5554 5557 5561 5563 5562 5560 5558 5557 5557 5557 5556 5556 5553 5548 5544 5539 5534 5533 5529 5525 5525 5519 5515 5510 5506 5502 5497 5491 5486 5482 5477 5473 5470 5466 5460 5455 5450 5444 5438 5431 5422
5525 5530 5534 5543 5545 5546 5546 5544 5541 5539 5539 5540 5540 5538 5538 5537 5530 5527 5522 5516 5512 5508 5508 5503 5500 5497 5494 5491 5487 5482 5476 5471 5467 5464 5460 5456 5451 5446 5440 5434 5427 5421 5414 5405
5508 5518 5524 5528 5529 5529 5527 5525 5523 5520 5522 5523 5522 5520 5519 5518 5512 5509 5506 5503 5501 5496 5490 5488 5486 5483 5480 5477 5472 5467 5462 5458 5455 5451 5447 5442 5437 5432 5426 5418 5410 5403 5395 5386
5495 5506 5510 5510 5511 5512 5509 5508 5505 5503 5505 5506 5504 5503 5500 5497 5493 5491 5488 5488 5486 5480 5478 5474 5471 5470 5467 5462 5457 5453 5449 5446 5442 5438 5433 5427 5422 5416 5409 5402 5392 5383 5373 5364